Home   Weather   Fairfield Estates   Past weeks
Flag for USA

Past Weather in Fairfield Estates, Alabama, USA — Yesterday and Last 2 Weeks

Now
51 °F

Light rain. Fog.


Feels Like: 47 °F
Forecast: 53 / 46 °F
Wind: 10 mph from North

Location: Dothan Airport

Current Time: Dec 10, 2019 at 9:09:39 pm

Latest Report: Dec 10, 2019 at 7:53 pm


Visibility: 5 mi

Pressure: 30.19 "Hg

Humidity: 92%

Dew Point: 49 °F

Location of Fairfield EstatesLocation

Past Weather in Fairfield Estates — Graph

°F

Fairfield Estates Temperature Yesterday

Maximum temperature yesterday: 75 °F (at 1:53 pm)
Minimum temperature yesterday: 61 °F (at 12:53 am)
Average temperature yesterday: 66 °F

High & Low Weather Summary for the Past Weeks

 TemperatureHumidityPressure
High80 °F (Nov 30, 1:53 pm)100% (Dec 10, 4:26 am)30.34 "Hg (Dec 10, 4:26 am)
Low32 °F (Dec 3, 5:53 am)21% (Dec 5, 11:53 am)29.78 "Hg (Dec 1, 2:53 pm)
Average58 °F72%30.09 "Hg
* Reported Nov 25 7:53 pm — Dec 10 7:53 pm, Fairfield Estates. Weather by CustomWeather, © 2019

Note: Actual official high and low records may vary slightly from our data, if they occured in-between our weather recording intervals... More about our weather records

Fairfield Estates Weather History for the Previous 24 Hours

Scroll right to see more
 ConditionsComfort  
Time TempWeatherWind HumidityBarometerVisibility
7:53 pm
Tue, Dec 10
51 °FLight rain. Fog.10 mph92%30.19 "Hg5 mi
7:02 pm53 °FRain. Fog.14 mph89%30.17 "Hg3 mi
5:53 pm57 °FLight rain. Fog.20 mph93%30.12 "Hg6 mi
4:53 pm60 °FLow clouds.17 mph90%30.09 "Hg10 mi
4:19 pm63 °FLight rain. Mostly cloudy.14 mph93%30.07 "Hg9 mi
4:00 pm64 °FLight rain. Cloudy.15 mph90%30.06 "Hg9 mi
2:53 pm69 °FMostly cloudy.8 mph81%30.01 "Hg10 mi
1:53 pm72 °FOvercast.13 mph76%30.01 "Hg10 mi
12:53 pm71 °FMostly cloudy.13 mph90%30.02 "Hg10 mi
12:17 pm70 °FLight rain. Fog.14 mph90%30.06 "Hg3 mi
11:50 am71 °FHeavy rain. Fog.10 mph90%30.05 "Hg1 mi
11:35 am72 °FRain. Fog.7 mph87%30.06 "Hg2 mi
11:20 am74 °FLight rain. Partly sunny.9 mph79%30.07 "Hg7 mi
11:00 am75 °FPartly sunny.9 mph76%30.08 "Hg10 mi
10:42 am74 °FMostly cloudy.8 mph82%30.09 "Hg10 mi
10:13 am72 °FMostly cloudy.6 mph91%30.10 "Hg9 mi
9:53 am70 °FFog.3 mph93%30.09 "Hg5 mi
9:15 am69 °FFog.5 mph96%30.11 "Hg3 mi
9:00 am68 °FFog.6 mph96%30.11 "Hg5 mi
8:01 am67 °FFog.5 mph100%30.09 "Hg2 mi
7:40 am67 °FFog.7 mph97%30.09 "Hg1 mi
7:21 am67 °FFog.7 mph97%30.08 "Hg1 mi
7:07 am67 °FFog.7 mph97%30.08 "Hg0 mi
6:53 am67 °FFog.5 mph97%30.06 "Hg1 mi
6:25 am67 °FFog.6 mph97%30.07 "Hg1 mi
5:53 am66 °FFog.7 mph100%30.05 "Hg5 mi
5:30 am66 °FFog.6 mph96%30.06 "Hg3 mi
5:19 am66 °FFog.7 mph96%30.06 "Hg2 mi
5:11 am66 °FFog.8 mph96%30.06 "Hg3 mi
4:26 am65 °FFog.9 mph100%30.05 "Hg1 mi
4:15 am65 °FFog.9 mph97%30.05 "Hg2 mi
3:43 am63 °FFog.6 mph97%30.05 "Hg3 mi
2:53 am64 °FFog.8 mph94%30.04 "Hg3 mi
2:34 am63 °FFog.7 mph93%30.06 "Hg4 mi
1:53 am63 °FFog.6 mph93%30.05 "Hg5 mi
12:53 am62 °FFog.7 mph96%30.04 "Hg6 mi
11:53 pm
Mon, Dec 9
63 °FClear.5 mph93%30.05 "Hg9 mi
10:53 pm64 °FClear.6 mph90%30.06 "Hg10 mi
9:53 pm64 °FClear.9 mph87%30.06 "Hg10 mi
Weather by CustomWeather, © 2019

See weather overview

Advertising